Home > Weather > Macau > Past weeks

Flag for Macau Weather for the Past 2 Weeks in Macau, Macau

Now
54 °F

Clear.


Feels Like: 50 °F
Forecast: 51 / 62 °F
Wind: 10 mph from North

Location: Taipa

Current Time: Feb 8, 2016 at 5:56:47 AM

Latest Report: Feb 8, 2016 at 5:00 AM


Visibility: 10 mi

Pressure: 30.21 "Hg

Humidity: 58%

Dew point: 39 °F

Location of MacauLocation

Historic Weather in Macau — Graph

°F

Macau Temperature Yesterday

Maximum temperature yesterday: 61 °F (at 3:30 PM)
Minimum temperature yesterday: 50 °F (at 9:30 PM)
Average temperature yesterday: 55 °F

High & Low Weather Summary for the Past Weeks

 TemperatureHumidityPressure
High63 °F (Jan 29, 1:00 PM)100% (Jan 27, 3:30 AM)30.63 "Hg (Jan 27, 3:30 AM)
Low39 °F (Jan 24, 2:00 PM)31% (Feb 7, 1:00 PM)29.98 "Hg (Jan 28, 2:30 PM)
Average53 °F76%30.22 "Hg
* Reported Jan 24 4:00 AM — Feb 8 4:00 AM, Macau, Weather by CustomWeather, © 2016

Note: Actual official high and low records may vary slightly from our data, if they occured in-between our weather recording intervals... More about our weather records

Advertising

Macau Weather History for the Previous 24 Hours

 ConditionsComfort  
Time TempWeatherWind HumidityBarometerVisibility
4:00 AM
Mon, Feb 8
48 °FClear.3 mph62%30.24 "Hg10 mi
3:30 AM48 °FClear.3 mph66%30.24 "Hg10 mi
3:00 AM50 °FClear.5 mph50%30.24 "Hg10 mi
2:30 AM50 °FClear.5 mph62%30.24 "Hg10 mi
2:00 AM50 °FPassing clouds.3 mph67%30.24 "HgN/A
1:30 AM54 °FClear.5 mph77%30.27 "Hg10 mi
1:00 AM55 °FClear.5 mph72%30.27 "Hg10 mi
12:30 AM52 °FClear.5 mph44%30.27 "Hg10 mi
12:00 AM52 °FClear.6 mph41%30.27 "Hg10 mi
11:30 PM
Sun, Feb 7
54 °FClear.6 mph44%30.27 "Hg10 mi
11:00 PM54 °FClear.7 mph44%30.27 "Hg10 mi
10:30 PM54 °FClear.7 mph54%30.27 "Hg10 mi
10:00 PM55 °FClear.9 mph55%30.27 "Hg10 mi
9:30 PM50 °FClear.10 mph54%30.27 "Hg10 mi
9:00 PM52 °FClear.10 mph54%30.27 "Hg10 mi
8:30 PM52 °FClear.10 mph54%30.27 "Hg10 mi
8:00 PM54 °FClear.10 mph47%30.24 "Hg10 mi
7:30 PM54 °FClear.10 mph47%30.24 "Hg10 mi
7:00 PM55 °FClear.10 mph41%30.24 "Hg10 mi
6:30 PM59 °FClear.10 mph45%30.24 "Hg10 mi
6:00 PM61 °FSunny.13 mph39%30.24 "Hg10 mi
5:30 PM61 °FSunny.16 mph34%30.24 "Hg10 mi
5:00 PM61 °FSunny.16 mph39%30.21 "Hg10 mi
4:30 PM61 °FSunny.18 mph39%30.21 "Hg10 mi
4:00 PM61 °FSunny.18 mph39%30.24 "Hg10 mi
3:30 PM61 °FSunny.15 mph36%30.24 "Hg10 mi
3:00 PM59 °FSunny.15 mph42%30.24 "Hg10 mi
2:30 PM59 °FSunny.15 mph39%30.27 "Hg10 mi
2:00 PM59 °FSunny.17 mph34%30.27 "Hg10 mi
1:30 PM59 °FSunny.17 mph34%30.30 "Hg10 mi
1:00 PM59 °FSunny.18 mph31%30.30 "Hg10 mi
12:30 PM57 °FSunny.18 mph33%30.33 "Hg10 mi
12:00 PM55 °FSunny.16 mph36%30.33 "Hg10 mi
11:30 AM55 °FSunny.17 mph38%30.33 "Hg10 mi
11:00 AM54 °FSunny.17 mph41%30.36 "Hg10 mi
10:30 AM54 °FSunny.22 mph44%30.36 "Hg10 mi
10:00 AM54 °FSunny.24 mph47%30.36 "Hg10 mi
9:30 AM52 °FSunny.24 mph47%30.36 "Hg10 mi
9:00 AM52 °FSunny.20 mph47%30.36 "Hg10 mi
8:30 AM52 °FSunny.20 mph47%30.36 "Hg10 mi
8:00 AM52 °FSunny.21 mph44%30.36 "Hg10 mi
7:30 AM52 °FSunny.21 mph50%30.33 "Hg10 mi
7:00 AM52 °FClear.22 mph44%30.33 "Hg10 mi
6:30 AM52 °FClear.17 mph47%30.30 "Hg10 mi
6:00 AM52 °FClear.17 mph47%30.30 "Hg10 mi
5:00 AM52 °FClear.20 mph44%30.30 "Hg10 mi
Weather by CustomWeather, © 2016

See weather overviewHow to use our weather pages